Volk, WI

4:44 PM CDT on July 27, 2017 (GMT -0500)
Volk

Weather History for KVOK - February, 2014

Change the Weather History Date:

Monday, February 3, 2014

  Actual Average Record
Temperature  
Mean Temperature 2 °F -  
Max Temperature 23 °F 27 °F 44 °F (2005)
Min Temperature -18 °F 15 °F -18 °F (2014)
Degree Days  
Heating Degree Days 62    
Moisture  
Dew Point -4 °F    
Average Humidity 68    
Maximum Humidity 85    
Minimum Humidity 48    
Precipitation  
Precipitation 0.00 in - - ()
Snow  
Snow 0.00 in - - ()
Snow Depth 16.00 in    
Sea Level Pressure  
Sea Level Pressure 30.35 in    
Wind  
Wind Speed 4 mph (SSW)    
Max Wind Speed 14 mph    
Max Gust Speed 20 mph    
Visibility 10 miles    
Events      
Averages and records for this station are not official NWS values.
T = Trace of Precipitation, MM = Missing Value Source: NWS Daily Summary

Daily Weather History Graph

Daily Weather History Graph

Search for Another Location

Airport or City:

Trip Planner

Search our weather history database for the weather conditions in past years. The results will help you decide how hot, cold, wet, or windy it might be!

Date:

Astronomy

Feb. 03, 2014 Rise Set
Actual Time 7:15 AM CST 5:14 PM CST
Civil Twilight 6:45 AM CST 5:44 PM CST
Nautical Twilight 6:11 AM CST 6:19 PM CST
Astronomical Twilight 5:37 AM CST 6:53 PM CST
Moon 9:07 AM CST (2/3) 10:16 PM CST (2/3)
Length of Visible Light 10h 59m
Length of Day
9h 58m
Waxing Crescent, 20% of the Moon is Illuminated
Feb 3
Waxing Crescent
Feb 6
First Quarter
Feb 14
Full
Feb 22
Last Quarter
Mar 1
New

Hourly Weather History & Observations

Time (CST) Temp. Windchill Dew Point Humidity Pressure Visibility Wind Dir Wind Speed Gust Speed Precip Events Conditions
12:58 AM -14.6 °F - -19.5 °F 79% 30.36 in 10.0 mi Calm Calm - -   Clear
1:58 AM -16.1 °F - -21.5 °F 77% 30.36 in 10.0 mi Calm Calm - -   Clear
2:58 AM -18.4 °F - -23.8 °F 76% 30.37 in 10.0 mi Calm Calm - -   Clear
3:58 AM -18.4 °F - -23.8 °F 76% 30.36 in 10.0 mi East 1.2 mph - -   Clear
4:58 AM -18.8 °F -33.8 °F -24.3 °F 76% 30.37 in 10.0 mi SSE 5.8 mph - -   Clear
5:58 AM -17.3 °F -30.1 °F -22.7 °F 76% 30.35 in 10.0 mi ESE 4.6 mph - -   Clear
6:58 AM -17.5 °F -32.3 °F -22.9 °F 76% 30.35 in 10.0 mi SE 5.8 mph - -   Clear
7:58 AM -7.6 °F -18.8 °F -11.2 °F 84% 30.36 in 10.0 mi ESE 4.6 mph - N/A   Clear
8:58 AM 3.2 °F -7.8 °F -0.4 °F 85% 30.34 in 10.0 mi South 5.8 mph - N/A   Clear
9:58 AM 10.4 °F 2.2 °F -2.2 °F 57% 30.36 in 10.0 mi SSE 4.6 mph - N/A   Clear
10:58 AM 15.8 °F 5.1 °F 1.4 °F 53% 30.35 in 10.0 mi South 8.1 mph - N/A   Clear
11:58 AM 19.4 °F 6.0 °F 5.0 °F 54% 30.34 in 10.0 mi SW 13.8 mph - N/A   Clear
12:58 PM 21.2 °F 10.1 °F 6.8 °F 54% 30.30 in 10.0 mi SSW 10.4 mph 19.6 mph N/A   Scattered Clouds
1:58 PM 22.6 °F 10.7 °F 5.7 °F 48% 30.28 in 10.0 mi SSW 12.7 mph - -   Clear
2:58 PM 23.0 °F 13.9 °F 6.8 °F 50% 30.30 in 10.0 mi SSW 8.1 mph - N/A   Mostly Cloudy
3:58 PM 23.0 °F 13.9 °F 6.8 °F 50% 30.30 in 10.0 mi SSW 8.1 mph - N/A   Mostly Cloudy
4:58 PM 21.2 °F 12.6 °F 5.0 °F 50% 30.32 in 10.0 mi SSW 6.9 mph - N/A   Mostly Cloudy
5:58 PM 19.4 °F 8.6 °F 8.6 °F 63% 30.34 in 10.0 mi WSW 9.2 mph - N/A   Mostly Cloudy
6:58 PM 17.6 °F 9.3 °F 6.8 °F 63% 30.35 in 10.0 mi SW 5.8 mph - N/A   Mostly Cloudy
7:58 PM 15.8 °F 2.7 °F 6.8 °F 68% 30.34 in 10.0 mi SW 11.5 mph - N/A   Mostly Cloudy
8:58 PM 10.4 °F -1.5 °F 3.2 °F 73% 30.36 in 10.0 mi West 8.1 mph - N/A   Scattered Clouds
9:58 PM 6.8 °F -2.0 °F 3.2 °F 85% 30.36 in 10.0 mi West 4.6 mph - N/A   Mostly Cloudy
10:58 PM 3.2 °F -6.2 °F -0.4 °F 85% 30.38 in 10.0 mi West 4.6 mph - N/A   Overcast
11:58 PM 7.5 °F 0.8 °F 3.0 °F 82% 30.39 in 10.0 mi WNW 3.5 mph - -   Overcast